Total_Precipitation_Accumulation
1.01 0.71 1.86 2.59 2.58 2.29 1.66 1.54 1.58 2.04 2.16 1.71 1.82 1.87 1.63 1.43 0.97 0.75 0.63 0.74 0.91 0.87 1.15 1.48 1.41 1.09 1.30 1.14 1.07 0.84 0.53 0.40 0.44 0.62 0.64 1.01 1.30 0.73 0.46 0.91 1.52 1.34 0.77
1.46 1.50 4.39 3.41 3.34 3.40 3.22 3.03 2.43 2.17 2.80 2.64 2.71 2.99 2.51 2.35 1.67 1.07 0.84 0.78 0.93 1.01 1.07 1.79 1.95 1.37 1.08 0.78 0.62 0.33 0.36 0.31 0.29 0.41 0.26 0.49 0.94 1.03 0.59 0.92 1.50 1.74 1.02
1.08 2.24 4.68 3.11 2.98 3.10 3.12 4.27 3.15 2.75 3.06 3.12 3.22 2.58 2.71 2.61 2.09 1.75 1.20 0.94 0.72 1.05 1.34 2.34 2.26 1.45 0.72 0.51 0.42 0.22 0.22 0.19 0.18 0.27 0.31 0.47 0.74 1.53 1.09 1.74 2.03 2.31 1.48
0.64 1.36 2.30 2.07 2.76 3.04 4.13 5.59 3.38 3.18 3.72 2.29 2.00 1.92 1.95 2.21 2.12 2.00 1.81 1.33 1.06 1.08 1.44 2.29 2.17 1.41 1.05 0.51 0.49 0.27 0.20 0.16 0.13 0.18 0.12 0.33 0.81 1.95 1.74 1.64 1.68 1.63 1.36
0.46 0.74 1.17 1.51 1.80 2.63 2.53 5.00 3.38 2.50 3.96 3.34 2.42 2.33 2.33 1.76 2.04 1.97 1.94 1.72 1.15 1.06 1.24 1.87 2.43 1.48 0.92 0.60 0.39 0.27 0.24 0.22 0.15 0.09 0.06 0.29 0.98 2.22 1.79 1.37 1.31 1.34 1.24
0.42 0.45 0.75 1.31 1.52 2.09 1.40 2.74 4.70 2.31 2.34 3.14 3.60 2.29 3.41 2.32 2.34 1.87 1.72 2.02 1.81 0.97 0.86 1.38 2.54 1.88 1.23 0.94 0.55 0.40 0.36 0.31 0.16 0.15 0.25 0.75 1.46 2.49 1.82 1.59 1.46 1.28 1.35
0.25 0.41 0.49 1.31 1.41 1.39 1.16 1.48 4.34 4.42 2.07 2.30 4.61 2.46 3.69 2.13 2.02 1.82 1.40 1.40 1.66 1.55 0.86 1.27 2.08 2.26 1.81 1.14 0.66 0.58 0.38 0.31 0.15 0.19 0.41 0.91 1.95 2.51 2.15 1.54 1.64 1.42 1.56
0.17 0.34 0.54 0.87 0.94 0.97 1.07 1.10 1.67 2.52 2.04 1.30 2.47 2.50 3.84 3.64 2.49 2.13 1.44 1.22 1.20 2.17 1.01 1.90 2.64 2.06 1.80 1.59 0.85 0.75 0.47 0.38 0.19 0.34 0.47 0.79 2.53 2.39 2.40 1.74 1.81 1.94 1.74
0.49 0.48 0.66 0.64 0.64 0.63 0.92 0.92 0.84 1.23 1.10 1.27 1.33 1.84 1.93 3.41 3.82 2.95 2.32 1.65 1.38 2.47 1.54 2.41 3.23 2.40 1.66 1.38 0.92 0.78 0.74 0.90 0.38 0.29 0.42 0.86 3.27 2.82 3.18 2.38 2.15 2.22 2.27
1.15 0.85 0.71 0.68 0.47 0.42 0.63 0.78 0.66 0.69 0.88 0.86 0.78 0.77 0.66 1.13 3.35 5.24 3.00 2.46 2.25 2.40 2.06 1.85 2.34 1.99 1.37 1.02 0.80 0.77 0.81 1.04 0.73 0.49 0.56 1.07 3.05 3.68 3.18 2.65 2.18 2.19 2.49
1.97 1.89 1.35 0.87 0.54 0.39 0.57 0.62 0.59 0.74 0.86 0.91 0.69 0.53 0.40 0.42 1.34 3.46 2.46 1.99 2.50 1.98 2.16 1.58 1.50 1.45 1.31 0.92 0.62 0.43 0.81 0.97 0.77 0.80 0.72 1.15 2.53 3.60 2.57 2.70 1.96 1.92 1.86
2.53 2.16 2.20 1.87 1.20 0.80 0.69 0.52 0.47 0.61 0.70 0.60 0.55 0.53 0.43 0.40 0.56 1.51 2.37 1.71 2.23 2.13 1.96 1.69 1.37 1.01 0.92 0.77 0.54 0.33 0.49 0.80 0.77 0.81 0.79 1.26 1.91 3.31 2.52 2.63 2.08 2.16 1.75
4.22 3.00 2.88 2.39 1.94 1.28 0.98 0.79 0.48 0.36 0.44 0.51 0.49 0.55 0.64 0.50 0.47 0.63 1.45 1.74 2.33 1.72 1.42 1.45 0.82 0.59 0.64 0.83 0.71 0.46 0.47 0.69 0.65 0.87 0.98 1.30 1.33 4.63 3.13 2.72 2.27 2.07 1.83
5.60 4.26 2.87 2.29 1.99 1.74 1.60 1.03 0.68 0.55 0.45 0.41 0.38 0.38 0.36 0.39 0.37 0.37 0.54 0.99 2.23 1.25 1.11 0.78 0.49 0.59 0.69 0.77 0.94 0.79 0.57 0.57 0.57 0.69 1.09 0.71 0.74 3.66 4.51 4.04 2.48 2.13 1.83
4.05 4.35 3.70 2.51 2.07 1.86 2.04 1.92 1.22 1.04 0.82 0.64 0.58 0.44 0.31 0.23 0.26 0.33 0.38 0.65 1.69 1.54 1.03 0.75 0.53 0.50 0.58 0.64 0.82 0.80 0.65 0.50 0.58 0.90 1.34 0.71 0.73 1.27 4.61 6.44 5.13 3.26 2.19
4.15 4.15 4.80 3.51 2.80 2.55 2.43 2.23 2.03 1.52 1.34 0.95 0.83 0.87 0.68 0.35 0.21 0.23 0.31 0.42 0.75 1.40 1.23 1.15 0.79 0.57 0.65 0.62 0.59 0.58 0.64 0.59 0.56 0.97 1.59 0.97 0.89 0.67 1.29 4.76 6.78 4.83 4.90
4.09 4.50 4.72 4.32 3.42 2.91 3.22 2.74 1.84 1.82 1.69 1.48 0.97 0.97 0.89 0.80 0.47 0.31 0.28 0.34 0.49 0.88 1.13 1.31 1.21 0.82 0.66 0.62 0.47 0.60 0.62 0.53 0.52 1.00 1.41 0.97 0.69 0.53 0.59 0.98 3.53 5.08 3.72
4.54 4.23 4.42 4.25 3.56 3.57 3.07 3.31 2.45 1.91 1.55 1.35 1.22 0.91 0.86 0.86 1.13 0.76 0.54 0.41 0.47 0.91 1.11 1.20 1.24 1.20 0.96 0.84 0.64 0.58 0.51 0.47 0.33 0.79 1.25 0.85 0.70 0.51 0.55 0.60 1.03 2.51 3.29
2.47 3.86 4.45 3.73 3.14 3.04 2.69 3.13 2.97 2.24 1.59 1.31 1.22 1.03 0.90 0.77 0.97 1.43 1.25 0.92 0.72 0.89 1.05 1.28 1.36 0.86 0.79 0.91 0.75 0.67 0.66 0.59 0.48 0.67 0.93 0.91 0.65 0.43 0.50 0.60 0.63 0.72 1.07
1.79 2.03 3.95 4.84 4.13 3.25 2.75 2.64 2.68 2.23 1.78 1.30 1.12 0.99 0.79 0.77 0.72 1.07 1.26 1.28 1.40 1.36 1.10 1.17 1.19 1.27 0.89 0.89 1.13 1.01 1.08 0.85 0.69 0.59 0.92 0.94 0.76 0.56 0.41 0.48 0.54 0.38 0.39
2.52 1.83 2.06 3.74 4.64 4.29 3.24 2.14 2.00 1.45 1.81 1.43 1.30 1.16 0.89 0.93 0.95 1.08 1.40 1.24 1.15 1.26 1.09 1.01 1.37 1.65 1.75 1.76 1.89 1.81 1.53 1.24 0.92 0.69 0.84 0.98 0.93 0.71 0.51 0.50 0.56 0.57 0.43
2.12 2.05 2.02 1.90 2.56 3.14 3.61 2.93 2.04 1.70 1.54 1.58 1.58 1.53 1.31 1.20 1.18 1.12 1.21 1.46 1.35 1.19 1.30 1.22 1.32 1.77 2.21 2.40 2.24 1.99 2.00 1.80 1.37 1.03 0.93 1.02 1.14 0.88 0.77 0.68 0.55 0.53 0.47
1.65 1.90 2.32 2.50 2.24 2.16 2.67 3.85 3.48 2.52 2.21 2.05 2.03 1.74 1.85 2.12 2.12 1.79 1.84 1.82 1.92 2.01 1.84 1.91 1.92 2.03 2.13 2.38 2.34 2.29 1.98 1.47 1.07 1.21 1.07 0.99 1.30 1.17 1.00 0.85 0.81 0.62 0.59
2.05 2.31 3.01 3.20 3.01 2.43 2.27 2.63 2.72 3.17 2.60 2.15 1.80 1.94 2.30 2.52 2.71 2.69 2.60 3.02 2.90 2.64 2.45 2.40 2.32 2.20 2.30 2.41 2.57 2.36 2.21 1.89 1.65 1.61 1.46 1.40 1.39 1.36 1.43 1.21 0.94 0.80 0.63
2.46 2.45 2.77 3.63 3.28 2.73 2.95 2.89 2.92 2.66 2.78 2.49 1.70 1.54 1.50 1.74 1.73 1.95 2.12 2.29 2.46 2.36 2.31 2.19 2.16 1.94 1.90 1.91 1.90 1.85 1.89 2.17 2.30 2.26 1.89 1.61 1.45 1.36 1.46 1.57 1.35 1.12 1.02
2.35 1.86 2.33 3.12 2.95 2.67 2.84 2.95 3.19 2.95 2.87 2.84 2.48 1.85 1.45 1.25 1.55 1.53 1.65 1.66 1.59 1.60 1.78 1.67 1.75 1.78 1.55 1.59 1.51 1.49 1.42 1.56 1.64 1.90 2.17 2.31 2.05 1.85 1.53 1.58 1.72 1.51 1.22